MUC863 EDDM-EDDF

Flight info

Callsign MUC863
Flight time N/A
Altitude 24000
Route GIVMI6S GIVMI Y101 ERNAS T161 DEBHI DEBHI1B
Aircraft A320/M-SDE3FGHIRWY/LB1

Departure

Time 2026-05-05 10:13
Airport Munich Airport (EDDM)

Arrival

Time N/A
Airport Frankfurt Main Airport (EDDF)
Time Latitude Longitude Altitude Speed Heading
2026-05-05 09:07 48.34972 11.77969 1476 ft 0 kts 83°
2026-05-05 10:03 48.34972 11.77965 1485 ft 3 kts 83°
2026-05-05 10:04 48.34969 11.77926 1480 ft 4 kts 83°
2026-05-05 10:04 48.34966 11.77897 1482 ft 4 kts 50°
2026-05-05 10:04 48.34948 11.77888 1473 ft 3 kts 353°
2026-05-05 10:04 48.34930 11.77891 1480 ft 0 kts 353°
2026-05-05 10:06 48.34940 11.77889 1483 ft 6 kts 353°
2026-05-05 10:07 48.35014 11.77875 1476 ft 16 kts 353°
2026-05-05 10:07 48.35147 11.77852 1485 ft 21 kts 353°
2026-05-05 10:07 48.35294 11.77825 1481 ft 22 kts 354°
2026-05-05 10:07 48.35452 11.77799 1479 ft 24 kts 354°
2026-05-05 10:08 48.35623 11.77770 1485 ft 25 kts 353°
2026-05-05 10:08 48.35800 11.77712 1478 ft 27 kts 341°
2026-05-05 10:08 48.35959 11.77713 1476 ft 20 kts 47°
2026-05-05 10:08 48.35987 11.77927 1485 ft 22 kts 82°
2026-05-05 10:09 48.36005 11.78163 1480 ft 24 kts 84°
2026-05-05 10:09 48.36024 11.78417 1475 ft 25 kts 81°
2026-05-05 10:09 48.36048 11.78689 1485 ft 27 kts 83°
2026-05-05 10:09 48.36071 11.78978 1485 ft 29 kts 83°
2026-05-05 10:10 48.36094 11.79283 1477 ft 30 kts 84°
2026-05-05 10:10 48.36116 11.79602 1485 ft 31 kts 84°
2026-05-05 10:10 48.36141 11.79934 1483 ft 32 kts 84°
2026-05-05 10:10 48.36165 11.80276 1473 ft 33 kts 84°
2026-05-05 10:11 48.36194 11.80628 1477 ft 34 kts 82°
2026-05-05 10:11 48.36224 11.80986 1474 ft 35 kts 83°
2026-05-05 10:11 48.36251 11.81353 1477 ft 36 kts 84°
2026-05-05 10:11 48.36277 11.81712 1480 ft 29 kts 84°
2026-05-05 10:12 48.36340 11.81982 1478 ft 29 kts 36°
2026-05-05 10:12 48.36536 11.81980 1485 ft 29 kts 354°
2026-05-05 10:12 48.36665 11.81929 1473 ft 15 kts 302°
2026-05-05 10:12 48.36666 11.81832 1472 ft 0 kts 260°
2026-05-05 10:13 48.36651 11.81671 1477 ft 48 kts 263°
2026-05-05 10:13 48.36583 11.80771 1486 ft 119 kts 263°
2026-05-05 10:13 48.36460 11.79258 1568 ft 164 kts 262°
2026-05-05 10:13 48.36325 11.77592 2335 ft 162 kts 263°
2026-05-05 10:14 48.36203 11.75908 3077 ft 161 kts 264°
2026-05-05 10:14 48.36079 11.74169 3567 ft 177 kts 263°
2026-05-05 10:14 48.35936 11.72210 3908 ft 200 kts 263°
2026-05-05 10:14 48.35771 11.70010 4227 ft 225 kts 263°
2026-05-05 10:15 48.35911 11.67611 4901 ft 240 kts 289°
2026-05-05 10:15 48.36733 11.65280 5379 ft 265 kts 300°
2026-05-05 10:15 48.37725 11.62858 6159 ft 276 kts 302°
2026-05-05 10:15 48.38756 11.60388 7070 ft 281 kts 302°
2026-05-05 10:16 48.39800 11.57883 8005 ft 285 kts 301°
2026-05-05 10:16 48.40852 11.55337 8957 ft 288 kts 301°
2026-05-05 10:16 48.41911 11.52754 9903 ft 292 kts 300°
2026-05-05 10:16 48.42979 11.50132 10754 ft 296 kts 300°
2026-05-05 10:17 48.44063 11.47471 11607 ft 300 kts 301°
2026-05-05 10:17 48.45427 11.45061 12429 ft 307 kts 316°
2026-05-05 10:17 48.46569 11.43774 12959 ft 313 kts 327°
2026-05-05 10:17 48.48627 11.42386 13279 ft 338 kts 343°
2026-05-05 10:18 48.51023 11.41683 13587 ft 359 kts 349°
2026-05-05 10:18 48.53514 11.41027 14153 ft 368 kts 348°
2026-05-05 10:18 48.56054 11.40354 14812 ft 373 kts 348°
2026-05-05 10:18 48.58619 11.39662 15522 ft 376 kts 348°
2026-05-05 10:19 48.61215 11.38949 16230 ft 380 kts 348°
2026-05-05 10:19 48.63832 11.38224 16937 ft 384 kts 348°
2026-05-05 10:19 48.66445 11.37497 17616 ft 388 kts 348°
2026-05-05 10:19 48.69078 11.36547 18278 ft 391 kts 340°
2026-05-05 10:20 48.71578 11.34907 18856 ft 392 kts 329°
2026-05-05 10:20 48.73882 11.32683 19437 ft 395 kts 324°
2026-05-05 10:20 48.76170 11.30355 20010 ft 398 kts 324°
2026-05-05 10:20 48.78480 11.28004 20567 ft 402 kts 324°
2026-05-05 10:21 48.80813 11.25633 21126 ft 405 kts 324°
2026-05-05 10:21 48.83166 11.23245 21710 ft 408 kts 324°
2026-05-05 10:21 48.85416 11.20627 22262 ft 409 kts 315°
2026-05-05 10:21 48.87520 11.17704 22810 ft 411 kts 315°
2026-05-05 10:22 48.89640 11.14754 23327 ft 414 kts 315°
2026-05-05 10:22 48.91770 11.11786 23723 ft 417 kts 315°
2026-05-05 10:22 48.93908 11.08807 23827 ft 415 kts 315°
2026-05-05 10:22 48.96023 11.05860 23856 ft 411 kts 315°
2026-05-05 10:23 48.98129 11.02916 23866 ft 410 kts 315°
2026-05-05 10:23 49.00233 10.99966 23848 ft 410 kts 315°
2026-05-05 10:23 49.02328 10.97023 23854 ft 410 kts 315°
2026-05-05 10:23 49.04426 10.94075 23855 ft 409 kts 315°
2026-05-05 10:24 49.06519 10.91133 23865 ft 409 kts 315°
2026-05-05 10:24 49.08611 10.88187 23868 ft 409 kts 314°
2026-05-05 10:24 49.10701 10.85237 23857 ft 409 kts 314°
2026-05-05 10:24 49.12792 10.82278 23866 ft 409 kts 314°
2026-05-05 10:25 49.14880 10.79318 23869 ft 409 kts 314°
2026-05-05 10:25 49.16937 10.76396 23873 ft 409 kts 314°
2026-05-05 10:25 49.19025 10.73427 23869 ft 409 kts 314°
2026-05-05 10:25 49.21083 10.70436 23866 ft 408 kts 313°
2026-05-05 10:26 49.23087 10.67366 23879 ft 408 kts 311°
2026-05-05 10:26 49.25055 10.64245 23873 ft 408 kts 311°
2026-05-05 10:26 49.27008 10.61089 23871 ft 408 kts 310°
2026-05-05 10:26 49.28959 10.57934 23871 ft 408 kts 310°
2026-05-05 10:27 49.30918 10.54789 23868 ft 408 kts 310°
2026-05-05 10:27 49.32885 10.51657 23865 ft 408 kts 311°
2026-05-05 10:27 49.34860 10.48528 23864 ft 408 kts 311°
2026-05-05 10:27 49.36704 10.45243 23848 ft 406 kts 302°
2026-05-05 10:28 49.38334 10.41682 23852 ft 410 kts 302°